SB KEPS @ AMSAT $ORB11069.N 2Line Orbital Elements 11069.AMSAT
HR AMSAT ORBITAL ELEMENTS FOR AMATEUR SATELLITES IN NASA FORMAT FROM WA5QGD FORT WORTH,TX March 10, 2011 Send Subscribe/unsubscribe to KEPS at http://www.amsat.org/mailman/listinfo/keps BID: ORB11069.N
DECODE 2-LINE ELSETS WITH THE FOLLOWING KEY: 1 AAAAAU 00 0 0 BBBBB.BBBBBBBB .CCCCCCCC 00000-0 00000-0 0 DDDZ 2 AAAAA EEE.EEEE FFF.FFFF GGGGGGG HHH.HHHH III.IIII JJ.JJJJJJJJKKKKKZ KEY: A-CATALOGNUM B-EPOCHTIME C-DECAY D-ELSETNUM E-INCLINATION F-RAAN G-ECCENTRICITY H-ARGPERIGEE I-MNANOM J-MNMOTION K-ORBITNUM Z-CHECKSUM
TO ALL RADIO AMATEURS BT
AO-07 1 07530U 74089B 11068.47839310 -.00000027 00000-0 10000-3 0 00247 2 07530 101.3950 078.9504 0012110 114.6820 245.5518 12.53581536661693 FO-29 1 24278U 96046B 11068.44349297 -.00000033 00000-0 -50566-8 0 05462 2 24278 098.5297 226.0861 0350924 155.6897 206.1253 13.52958089718975 SO-33 1 25509U 98061B 11068.43235758 .00000177 00000-0 24672-4 0 09224 2 25509 031.4306 088.4953 0353277 089.3148 274.7946 14.28371925646004 RS-22 1 27939U 03042A 11069.63703509 .00000323 00000-0 70829-4 0 617 2 27939 097.8579 288.2772 0012619 299.8771 060.1183 14.63522988397922 VO-52 1 28650U 05017B 11068.64235638 .00001017 00000-0 13390-3 0 07386 2 28650 097.6540 116.1743 0027963 126.2366 234.1464 14.81933760316006 SO-67 1 35870U 09049F 11069.20119816 .00002077 00000-0 95560-4 0 6329 2 35870 097.2949 115.7640 0001521 230.3037 200.6090 15.21413637 81892 HO-68 1 36122U 09072B 11069.04836659 -.00000044 00000-0 00000 0 0 1800 2 36122 100.4279 131.3180 0008115 091.0009 269.2042 13.16284444 59196 UO-11 1 14781U 84021B 11068.20985739 .00000551 00000-0 80039-4 0 04906 2 14781 098.0161 125.1788 0010123 100.6155 259.6195 14.79902664451000 AO-16 1 20439U 90005D 11068.44756833 .00000064 00000-0 39483-4 0 01384 2 20439 098.3720 021.4597 0011864 098.1803 262.0730 14.31899167103346 LO-19 1 20442U 90005G 11069.94008528 .00000047 00000-0 33039-4 0 465 2 20442 098.3361 027.6352 0012867 089.3584 270.9073 14.32126606103733 AO-27 1 22825U 93061C 11068.81709083 .00000113 00000-0 61223-4 0 07676 2 22825 098.5207 015.3716 0007872 203.2391 156.8402 14.29330275909997 IO-26 1 22826U 93061D 11068.41473862 .00000043 00000-0 33669-4 0 05062 2 22826 098.5145 015.4856 0008496 198.8407 161.2462 14.29589525910054 GO-32 1 25397U 98043D 11068.64271562 -.00000055 00000-0 -65002-5 0 4242 2 25397 098.3225 066.5528 0001165 162.8269 197.2935 14.23198066657808 NO-44 1 26931U 01043C 11068.63087127 .00000104 00000-0 72884-4 0 06994 2 26931 067.0496 240.0499 0007155 271.2828 088.7465 14.29637628492697 SO-50 1 27607U 02058C 11068.85608549 .00000174 00000-0 48957-4 0 4105 2 27607 064.5573 269.4926 0061821 344.2489 015.6664 14.71659178441471 CO-55 1 27844U 03031E 11068.88088326 .00000129 00000-0 79868-4 0 615 2 27844 098.7086 079.0202 0010228 121.5927 238.6250 14.20775266398810 CO-57 1 27848U 03031J 11068.59771423 .00000093 00000-0 63419-4 0 91 2 27848 098.7141 077.8974 0010190 127.4884 232.7206 14.20559288398723 AO-51 1 28375U 04025K 11068.65996697 .00000073 00000-0 34605-4 0 09159 2 28375 098.0874 052.3908 0084873 012.4090 347.9168 14.40729286351736 CP3 1 31129U 07012N 11068.60326822 .00000490 00000-0 12248-3 0 8151 2 31129 097.9098 098.5339 0103022 129.9084 231.1242 14.52390776206386 CO-65 1 32785U 08021C 11069.90399412 .00001110 00000-0 14675-3 0 9348 2 32785 097.8595 135.6367 0015651 133.6580 226.5907 14.81856460154986 KKS-1 1 33493U 09002B 11069.15122473 .00001443 00000-0 19109-3 0 3804 2 33493 098.1105 196.4243 0019903 004.6005 355.5411 14.81374612114854 SOHLA-1 1 33496U 09002E 11068.77978970 .00000221 00000-0 45410-4 0 3533 2 33496 098.0700 179.6770 0007641 080.0426 280.1643 14.69564633113888 TISAT-1 1 36799U 10035E 11069.79805214 .00000967 00000-0 13381-3 0 6556 2 36799 098.1128 137.0433 0014386 232.4365 127.5553 14.80350683 35759 STUDSAT 1 36801U 10035G 11068.78798064 .00002654 00000-0 35674-3 0 01810 2 36801 098.1147 135.8695 0013078 224.7859 135.2297 14.80088698035596 RAX 1 37223U 0 11047.27696737 .00000210 00000-0 37394-4 0 00845 2 37223 071.9744 305.5778 0020243 156.1195 204.0952 14.77236729013032 OOREOS 1 37224U 10062C 11043.43618410 .00000219 00000-0 38954-4 0 00810 2 37224 071.9758 314.1598 0019424 162.0076 198.1778 14.76892599012453 NANOSALD 1 37225U 0 11066.57088737 .00056508 00000-0 73345-2 0 00717 2 37225 071.9766 262.9771 0028222 073.6605 286.7869 14.80148112006983 FAST1-2 1 37227U 0 11068.12753356 .00000273 00000-0 47164-4 0 00987 2 37227 071.9704 259.8732 0015726 108.8223 251.4641 14.76400491016097 NOAA-10 1 16969U 86073A 11068.53540926 .00000103 00000-0 59921-4 0 04220 2 16969 098.6289 099.6299 0012548 153.0250 207.1596 14.27447101273435 NOAA-11 1 19531U 88089A 11068.27970790 .00000139 00000-0 94440-4 0 04295 2 19531 098.7529 157.6320 0011906 111.5690 248.6746 14.14906489158620 NOAA-12 1 21263U 91032A 11068.78128562 .00000083 00000-0 53916-4 0 09252 2 21263 098.7563 086.7778 0013228 113.7278 246.5288 14.25688566030247 MET-3/5 1 21655U 91056A 11068.84298161 .00000051 00000-0 10000-3 0 00570 2 21655 082.5559 120.9717 0014506 049.8343 310.3962 13.17026925940642 MET-2/21 1 22782U 93055A 11068.46458113 -.00000001 00000-0 -14047-4 0 00388 2 22782 082.5461 041.9897 0023129 022.5425 337.6750 13.83653002884769 OKEAN-4 1 23317U 94066A 11068.57690294 .00000479 00000-0 55735-4 0 04959 2 23317 082.5380 106.1500 0023924 087.3913 273.0030 14.82955932885787 NOAA-14 1 23455U 94089A 11068.81605448 .00000043 00000-0 46221-4 0 04082 2 23455 098.8545 152.4290 0008917 197.7621 162.3235 14.13808551835038 NOAA-15 1 25338U 98030A 11068.66355225 -.00000072 00000-0 -12145-4 0 07379 2 25338 098.6473 056.2098 0011121 027.2353 332.9404 14.24887583666551 RESURS 1 25394U 98043A 11068.62836308 .00000004 00000-0 19553-4 0 07448 2 25394 098.2993 077.1351 0001686 131.0021 229.1309 14.24224954658134 FENGYUN1 1 25730U 99025A 11068.79678935 .00000769 00000-0 47219-3 0 02768 2 25730 098.8102 032.2081 0022046 231.0008 128.9207 14.08522492609079 OKEAN-0 1 25860U 99039A 11068.56023678 .00000256 00000-0 46565-4 0 02507 2 25860 097.8716 037.8179 0001044 044.8983 315.2327 14.73720739625987 NOAA-16 1 26536U 00055A 11068.63169488 .00000228 00000-0 14844-3 0 02183 2 26536 099.1512 097.1063 0009905 314.9166 045.1229 14.12601327539300 NOAA-17 1 27453U 02032A 11068.62942013 .00000061 00000-0 44182-4 0 02141 2 27453 098.3923 112.8540 0012685 082.0012 278.2588 14.24243324452485 NOAA-18 1 28654U 05018A 11068.64465417 .00000119 00000-0 90646-4 0 06977 2 28654 098.9859 019.6042 0014867 028.3409 331.8566 14.11443070298881 NOAA-19 1 33591U 09005A 11068.61984449 .00000050 00000-0 52026-4 0 08900 2 33591 098.8192 010.4912 0013188 257.6723 102.2970 14.11135789107346 HUBBLE 1 20580U 90037B 11069.06620450 .00001212 00000-0 79507-4 0 7248 2 20580 028.4715 303.8711 0003545 147.4930 212.6124 15.01196317944742 ISS 1 25544U 98067A 11069.85678132 .00026254 00000-0 19548-3 0 9772 2 25544 051.6457 305.2770 0005837 054.4251 048.1894 15.72585793705422 CO-58 1 28895U 05043F 11069.65539151 .00000463 00000-0 10558-3 0 8204 2 28895 097.9825 309.7766 0018114 166.5575 193.6094 14.60023717285864 FALCON 1 30776U 07006E 11068.89704845 .00002211 00000-0 15897-3 0 00469 2 30776 035.4331 230.5297 0002072 305.8753 054.1771 15.04190013220085 MAST 1 31126U 07012K 11069.81586657 .00000209 00000-0 57168-4 0 1035 2 31126 097.9057 102.5585 0095624 116.7213 244.3821 14.53684531206793 CAPE1 1 31130U 07012P 11068.60736582 .00000408 00000-0 10397-3 0 1235 2 31130 097.9105 098.3404 0103326 129.9629 231.0693 14.52304728206189 COMPASS 1 32787U 08021E 11068.17168933 .00001283 00000-0 16724-3 0 09304 2 32787 097.8585 133.8170 0016299 139.5998 220.6416 14.82180175154744 AAUSAT2 1 32788U 08021F 11068.14740426 .00001521 00000-0 19636-3 0 9181 2 32788 097.8571 133.9855 0015826 139.2801 220.9651 14.82346946154751 DO-64 1 32789U 08021G 11069.87135537 .00002422 00000-0 30634-3 0 9366 2 32789 097.8669 136.5101 0016159 132.9462 227.3152 14.82670023155019 CO-66 1 32791U 08021J 11068.16873850 .00001299 00000-0 17036-3 0 09213 2 32791 097.8585 133.7832 0016592 138.3508 221.8957 14.81915678154693 RS-30 1 32953U 08025A 11069.38749899 .00000010 00000-0 00000 0 0 5380 2 32953 082.4985 224.1344 0018228 240.4050 119.5236 12.43010892126811 TACSAT-3 1 35001U 09028A 11068.92613669 .00019688 00000-0 40198-3 0 05360 2 35001 040.4546 054.0615 0022101 196.5801 163.4301 15.45396442101701 PHARMSAT 1 35002U 09028B 11068.36628161 .00014137 00000-0 28869-3 0 04939 2 35002 040.4688 054.9183 0024802 195.1744 164.8343 15.45495646101649 HAWKSAT1 1 35003U 09028C 11068.97138317 .00048176 00000-0 72304-3 0 05402 2 35003 040.4576 033.7899 0028281 225.6415 134.2233 15.53574565101932 CP6 1 35004U 09028D 11069.21405614 .00063231 00000-0 85826-3 0 5433 2 35004 040.4590 027.5709 0025433 232.1310 127.7225 15.56294191102018 AEROCUB3 1 35005U 09028E 11006.09222617 .14049365 73043-5 82692-3 0 6103 2 35005 040.4461 021.7975 0025578 084.1677 280.7191 16.39196088 92544 METEOR-M 1 35865U 09049A 11069.20919084 .00000176 00000-0 10000-3 0 1720 2 35865 098.7205 125.5662 0002222 337.6153 022.4895 14.21834844 76522 RS-38 1 35869U 09049E 11069.15080330 .00000177 00000-0 10000-3 0 1812 2 35869 098.7179 125.5495 0004260 327.8404 032.2480 14.22001758 76524 /EX
participants (1)
-
Ray Hoad